Starlink 34898

operational
NORAD ID: 65895 Int'l Des: 2025-224 Owner: SPXS Country: US Constellation: starlink
LEOCIRCULAR

关于 Starlink 34898

正在加载描述...

实时位置

正在加载3D地球...

即将过境

高度历史

Altitude vs Time

uPlot chart will show altitude changes over time

两行轨道根数

1 65895U 25224P 25340.67543470 .00032721 00000-0 11115-2 0 9994
2 65895 53.1636 83.3627 0001124 83.7836 276.3293 15.30214399 10630
Epoch: Dec 6, 2025 • Age: 15 hours

当前状态

高度 493.9 km
速度 7.62 km/s
星下点 -52.17°S, 145.93°E
发射日期 Oct 7, 2025
运行时间 0.1 years
类型 internet

技术详情

分类 Payload
质量 575.00 kg
干质量 530.00 kg
总质量 575.00 kg
长度 0.30 m
直径 4.10 m
跨度 29.00 m
形状 Box + pan
制造商 SPXS
平台类型 Starlink V2MO
阶段状态 In Orbit
所有者/国家 SPXS/US

大型星座

Loading constellations...